Marshfield, WI

4:10 AM CST on January 18, 2018 (GMT -0600)
Marshfield Municipal

Weather History for KMFI - August, 2014

Change the Weather History Date:

Saturday, August 9, 2014

  Actual Average Record
Temperature  
Mean Temperature 68 °F -  
Max Temperature 81 °F 80 °F 96 °F (1936)
Min Temperature 55 °F 56 °F 39 °F (1927)
Cooling Degree Days 3    
Growing Degree Days 18 (Base 50)    
Moisture  
Dew Point 57 °F    
Average Humidity 66    
Maximum Humidity 90    
Minimum Humidity 42    
Precipitation  
Precipitation 0.00 in - - ()
Sea Level Pressure  
Sea Level Pressure 30.13 in    
Wind  
Wind Speed 5 mph (ESE)    
Max Wind Speed 13 mph    
Max Gust Speed -    
Visibility 10 miles    
Events      
Averages and records for this station are not official NWS values.
T = Trace of Precipitation, MM = Missing Value Source: NWS Daily Summary

Daily Weather History Graph

Daily Weather History Graph

Search for Another Location

Airport or City:

Trip Planner

Search our weather history database for the weather conditions in past years. The results will help you decide how hot, cold, wet, or windy it might be!

Date:

Astronomy

Aug. 09, 2014 Rise Set
Actual Time 5:56 AM CDT 8:15 PM CDT
Civil Twilight 5:23 AM CDT 8:47 PM CDT
Nautical Twilight 4:43 AM CDT 9:27 PM CDT
Astronomical Twilight 3:58 AM CDT 10:12 PM CDT
Moon 7:15 PM CDT (8/9) 4:36 AM CDT (8/9)
Length of Visible Light 15h 23m
Length of Day
14h 19m
Waxing Gibbous, 98% of the Moon is Illuminated
Aug 9
Waxing Gibbous
Aug 10
Full
Aug 17
Last Quarter
Aug 25
New
Sep 2
First Quarter

Hourly Weather History & Observations

Time (CDT) Temp. Heat Index Dew Point Humidity Pressure Visibility Wind Dir Wind Speed Gust Speed Precip Events Conditions
12:54 AM 64.9 °F - 55.0 °F 70% 30.12 in 10.0 mi East 3.5 mph - N/A   Clear
1:54 AM 63.0 °F - 55.0 °F 75% 30.11 in 10.0 mi East 3.5 mph - N/A   Clear
2:54 AM 63.0 °F - 55.0 °F 75% 30.12 in 10.0 mi ENE 3.5 mph - N/A   Clear
3:54 AM 62.1 °F - 54.0 °F 75% 30.12 in 10.0 mi ENE 3.5 mph - N/A   Clear
4:54 AM 60.1 °F - 54.0 °F 80% 30.15 in 9.0 mi NE 3.5 mph - N/A   Clear
5:54 AM 55.9 °F - 53.1 °F 90% 30.15 in 7.0 mi ENE 4.6 mph - N/A   Clear
6:54 AM 60.1 °F - 55.9 °F 86% 30.16 in 6.0 mi ENE 3.5 mph - N/A   Clear
7:54 AM 64.9 °F - 57.9 °F 78% 30.16 in 8.0 mi ENE 6.9 mph - N/A   Clear
8:54 AM 69.1 °F - 57.9 °F 68% 30.16 in 9.0 mi East 4.6 mph - N/A   Clear
9:54 AM 73.0 °F - 59.0 °F 61% 30.17 in 10.0 mi ESE 3.5 mph - N/A   Clear
10:54 AM 75.9 °F - 57.9 °F 54% 30.17 in 10.0 mi SE 5.8 mph - N/A   Scattered Clouds
12:54 PM 80.1 °F 80.6 °F 57.9 °F 47% 30.14 in 10.0 mi SE 12.7 mph - N/A   Clear
1:54 PM 81.0 °F 81.0 °F 57.0 °F 44% 30.13 in 10.0 mi East 9.2 mph - N/A   Partly Cloudy
2:54 PM 79.0 °F - 57.0 °F 47% 30.12 in 10.0 mi ESE 8.1 mph - N/A   Mostly Cloudy
3:54 PM 81.0 °F 80.8 °F 55.9 °F 42% 30.12 in 10.0 mi SSE 8.1 mph - N/A   Clear
4:54 PM 78.1 °F - 57.0 °F 48% 30.12 in 10.0 mi SSE 8.1 mph - N/A   Clear
5:54 PM 77.0 °F - 57.9 °F 52% 30.12 in 10.0 mi ESE 9.2 mph - N/A   Clear
6:54 PM 75.0 °F - 59.0 °F 57% 30.10 in 10.0 mi SE 6.9 mph - N/A   Clear
7:54 PM 73.0 °F - 60.1 °F 64% 30.10 in 10.0 mi ESE 3.5 mph - N/A   Clear
8:54 PM 71.1 °F - 60.1 °F 68% 30.11 in 10.0 mi ESE 4.6 mph - N/A   Clear
9:54 PM 66.9 °F - 60.1 °F 79% 30.11 in 10.0 mi ESE 4.6 mph - N/A   Clear
10:54 PM 64.0 °F - 57.9 °F 80% 30.12 in 10.0 mi ESE 3.5 mph - N/A   Clear
11:54 PM 63.0 °F - 55.9 °F 78% 30.11 in 10.0 mi East 4.6 mph - N/A   Clear